Погода в Воронеже

Погода в Воронеже : погода сейчас, прогноз погоды и архив. Всё, что Вы хотите узнать о погоде в Воронеже!

Хотите узнать прогноз погоды в Воронеже? Тогда Вам сюда: Погода в Воронеже

Поиск расширенной информации на нашем сайте:

Другие новости

Новости СМИ2

Главная страница сайта

Новости сайта

03.07.2017

Напоминаем, что на нашем специализированном сайте Метеоцентр.Азия вы можете получить высокодетализированные автоматические прогнозы погоды по пунктам России, СНГ и мира в авиационном формате (включающие направление и скорость ветра, видимость, явления погоды, количество и форму облачности, нижнюю и верхнюю границу облачности).


Погода в Воронеже - сегодня

Время (UTC), дата Ветер
(°,м/с) 
Видим.   Явления Облачность Т
(°С)
Тd
(°С)
f(%) Тe
(°С)
Pmin
(гПа)
dP
(гПа)
Po
(мм)
O2
(г/м3)
Тmin Tmax R s Состояние
почвы
21 23.07.17 310 (СЗ) 10 км    ясно 
+14.6 +12.6 88 +21  1014.1  0.1  747  283           
00 24.07.17 360 (С) 10 км    ясно 
+13.6 +12.1 91 +19  1014.1  747  285           
03 24.07.17 280 (З) 10 км    3/0 верхняя 
[Ci]
+12.8 +11.7 93 +18  1015  0.7  748  286  +12         
06 24.07.17 тихо ()   10 км    3/0 верхняя 
[Ci fib]
+20.8 +11.9 57 +25  1014.5  748  278           
09 24.07.17 020 (С) 10 км    4/4 1000 м 
[Cu hum]
+23.2 +9.1 41 +23  1014  -0.4  748  276           
12 24.07.17 130 (ЮВ) 10 км    4/4 1000 м 
[Cu hum]
+24.6 +9.2 38 +25  1012.8  -1  747  274           
15 24.07.17 030 (СВ) 10 км    3/3 1000 м 
[Cu hum]
+24.6 +10.4 41 +26  1011.9  -0.9  746  274    +26       
18 24.07.17 030 (СВ) 10 км    4/1 1000 м средняя 
[Cu hum|Ac lent]
+19.8 +12.1 61 +25  1012.3  0.1  746  278           
21 24.07.17 тихо ()   10 км    3/0 средняя 
[Ac trans]
+15.9 +12.8 82 +21  1012.6  0.2  746  282           
00 25.07.17 тихо ()   10 км    3/0 средняя 
[Ac trans]
+13.4 +12.7 96 +18  1012.4  -0.4  746  284           
03 25.07.17 тихо ()   10 км    ясно 
+14.2 +12 87 +18  1011.8  -0.6  746  283  +12.9         
06 25.07.17 140 (ЮВ) 10 км    3/0 верхняя 
[Ci fib]
+23 +12.1 50 +27  1011.1  -0.3  745  275           
09 25.07.17 080 (В) 10 км    4/4 1000 м 
[Cu hum]
+25.4 +10.1 38 +27  1010.3  -0.6  745  273           
12 25.07.17 090 (В) 10 км    4/4 1000 м 
[Cu hum]
+26.7 +10.1 35 +28  1009.5  -0.7  744  271           
15 25.07.17 360 (С) 10 км    3/3 1000 м 
[Cu hum]
+25.6 +11.6 42 +29  1008.7  -0.7  744  272    +27       
18 25.07.17 тихо ()   10 км    3/0 средняя, верхняя 
[Ac trans|Ci fib]
+20.8 +12.7 60 +26  1009.2  0.1  744  276           
21 25.07.17 050 (СВ) 10 км    4/0 средняя, верхняя 
[Ac trans|Ci fib]
+19.3 +12.8 66 +26  1009.5  0.3  744  278           
00 26.07.17 060 (СВ) 10 км    4/0 средняя, верхняя 
[Ac trans|Ci fib]
+17.6 +12.6 72 +24  1009.4  -0.2  744  279           
03 26.07.17 060 (СВ) 10 км    3/0 верхняя 
[Ci fib]
+16.2 +12.4 78 +23  1009.4  -0.1  744  281  +16.2         
06 26.07.17 100 (В) 10 км    4/0 верхняя 
[Ci fib]
+23.1 +12.4 51 +28  1008.3  -0.8  743  274           
09 26.07.17 100 (В) 10 км    4/0 средняя, верхняя 
[Ac trans|Ci fib]
+27 +11.7 39 +31  1008.1  0.1  743  270           
12 26.07.17 090 (В) 10 км    8/3 1000 м средняя 
[Cu hum|Ac trans]
+29 +12.3 36 +34  1007.1  -0.9  743  268           
15 26.07.17 030 (СВ) 10 км    3/1 1000 м верхняя 
[Cu hum|Ci fib]
+29.6 +13.2 37 +36  1006.2  -0.8  742  267    +30.2       
18 26.07.17 040 (СВ) 10 км    ясно 
+25.2 +14.1 50 +33  1006.6  0.2  742  271           
21 26.07.17 тихо ()   10 км    ясно 
+19.8 +15.2 75 +29  1007.3  0.3  743  276           
Время (UTC), дата Ветер
(°,м/с) 
Видим.   Явления Облачность Т
(°С)
Тd
(°С)
f(%) Тe
(°С)
Pmin
(гПа)
dP
(гПа)
Po
(мм)
O2
(г/м3)
Тmin Tmax R s Состояние
почвы

Для получения пояснительной информации подведите курсор к названию столбца.

ПОГОДА в Воронеже - архив

Всё, что Вы хотите узнать о погоде в Воронеже - удобно и подробно!

Выберите нужную дату (начиная с 1 января 2015* года) и нажмите кнопку "Найти".
Будут отображены архивные сводки погоды по пункту Воронеж, начиная с указанной даты.


Отображать данные в формате CSV (для использования в таблицах Excel)


Внимание! Наш архив погоды предназначен исключительно для личного некоммерческого использования в познавательных целях. Если Вам необходимы официальные справки о состоянии погоды (для производственных, юридических, коммерческих и т.п. целей), обращайтесь в органы Росгидромета.

*Примечание: данная дата относится к архиву по метеостанциям СССР (Россия, СНГ, Балтия).
Архив по метеостанциям Зарубежной Европы и Азии (кроме Китая) хранится 10 дней, по другим регионам земного шара (Китай, Африка, Америка, Австралия, Океания) - 1 день.

Воронеж - район местоположения метеостанции


Название, широта, долгота, высота метеостанции:
Воронеж (город) 51.6°ш. 39.2°д. 104 м над ур. моря [Российская Федерация]

Дополнительная информация

В oтличие oт бoльшинства пoгoдных сайтoв мы публикуем пoдрoбную метеoинфoрмацию в детальнoм прoфессиoнальнoм фoрмате.

Характеристики температуры и влажнoсти вoздуха измеряются на высoте 2 м в тени вдали oт зданий и деревьев.
Скoрoсть ветра измеряется на высoте 10 м (на урoвне рoста челoвека скoрoсть ветра ниже в 1.5-2 раза). Если метеoстанция нахoдится в гoрoде или в лесу, тo скoрoсть ветра занижена на 2-4 м/с пo сравнению с oткрытым местoм. Скoрoсть ветра над акватoриями крупных рек и oзёр, а также на вершинах хoлмoв на 2-5 м/с выше, чем в oбычных услoвиях.
Атмoсфернoе давление в разных тoчках местнoсти мoжет значительнo oтличаться oт давления на метеoстанции, в зависимoсти oт услoвий рельефа (при пoдъёме на 10 м давление пoнижается примернo на 1 мм рт.ст.).